| time (UTC) | temp F | wind direction | speed MPH | gust MPH | rain 1hr in | rain 24hr in | rain mn in | humidity % | barometer mb |
| 20260905174549 | 53 | 197 | 0.0 | 2.0 | 0.00 | 0.01 | 0.00 | 76 | 1020.1 |
| 20260905173038 | 52 | 195 | 0.0 | 2.0 | 0.00 | 0.01 | 0.00 | 81 | 1020.1 |
| 20260905171536 | 50 | 217 | 0.0 | 0.0 | 0.00 | 0.01 | 0.00 | 88 | 1020.4 |
| 20260905170031 | 49 | 217 | 0.0 | 0.0 | 0.00 | 0.01 | 0.00 | 87 | 1020.4 |
| 20260905164525 | 48 | 217 | 0.0 | 0.0 | 0.00 | 0.01 | 0.00 | 90 | 1020.5 |
| 20260905163023 | 47 | 217 | 0.0 | 2.0 | 0.00 | 0.01 | 0.00 | 91 | 1020.5 |
| 20260905161517 | 46 | 217 | 0.0 | 2.0 | 0.00 | 0.01 | 0.00 | 90 | 1020.5 |
| 20260905160027 | 45 | 217 | 0.0 | 1.0 | 0.00 | 0.01 | 0.00 | 90 | 1020.6 |
| 20260905154509 | 44 | 217 | 0.0 | 2.0 | 0.00 | 0.01 | 0.00 | 90 | 1020.7 |
| 20260905153012 | 42 | 217 | 0.0 | 0.0 | 0.00 | 0.01 | 0.00 | 90 | 1020.7 |
| 20260905151506 | 40 | 217 | 0.0 | 0.0 | 0.00 | 0.01 | 0.00 | 90 | 1020.7 |
| 20260905150011 | 38 | 217 | 0.0 | 0.0 | 0.00 | 0.01 | 0.00 | 91 | 1020.8 |
| 20260905144517 | 37 | 217 | 0.0 | 0.0 | 0.00 | 0.01 | 0.00 | 91 | 1020.8 |
| 20260905143003 | 37 | 217 | 0.0 | 0.0 | 0.00 | 0.01 | 0.00 | 91 | 1020.6 |
| 20260905141500 | 36 | 217 | 0.0 | 0.0 | 0.00 | 0.01 | 0.00 | 91 | 1020.4 |
| 20260905140104 | 36 | 217 | 0.0 | 0.0 | 0.00 | 0.01 | 0.00 | 91 | 1020.2 |
| 20260905134607 | 36 | 217 | 0.0 | 0.0 | 0.00 | 0.01 | 0.00 | 91 | 1020.2 |
| 20260905133059 | 36 | 217 | 0.0 | 0.0 | 0.00 | 0.01 | 0.00 | 91 | 1020.1 |
| 20260905131600 | 36 | 217 | 0.0 | 0.0 | 0.00 | 0.01 | 0.00 | 91 | 1020.1 |
| 20260905130058 | 36 | 217 | 0.0 | 0.0 | 0.00 | 0.01 | 0.00 | 91 | 1020.1 |
| 20260905124552 | 36 | 217 | 0.0 | 0.0 | 0.00 | 0.01 | 0.00 | 91 | 1020.1 |
| 20260905123056 | 36 | 217 | 0.0 | 0.0 | 0.00 | 0.01 | 0.00 | 91 | 1020.0 |
| 20260905121547 | 37 | 217 | 0.0 | 0.0 | 0.00 | 0.01 | 0.00 | 91 | 1019.8 |
| 20260905120047 | 37 | 217 | 0.0 | 0.0 | 0.00 | 0.01 | 0.00 | 91 | 1019.9 |
| 20260905114620 | 37 | 217 | 0.0 | 0.0 | 0.00 | 0.01 | 0.00 | 91 | 1019.8 |
| 20260905113042 | 37 | 217 | 0.0 | 0.0 | 0.00 | 0.01 | 0.00 | 91 | 1019.8 |
| 20260905111548 | 37 | 217 | 0.0 | 0.0 | 0.00 | 0.01 | 0.00 | 91 | 1019.6 |
| 20260905110039 | 38 | 217 | 0.0 | 0.0 | 0.00 | 0.01 | 0.00 | 91 | 1019.6 |
| 20260905104536 | 38 | 217 | 0.0 | 0.0 | 0.00 | 0.02 | 0.00 | 91 | 1019.4 |
| 20260905103036 | 38 | 217 | 0.0 | 0.0 | 0.00 | 0.02 | 0.00 | 91 | 1019.5 |
| 20260905101534 | 38 | 218 | 0.0 | 0.0 | 0.00 | 0.02 | 0.00 | 91 | 1019.4 |
| 20260905100031 | 39 | 218 | 0.0 | 0.0 | 0.00 | 0.02 | 0.00 | 90 | 1019.3 |
| 20260905094529 | 39 | 217 | 0.0 | 0.0 | 0.00 | 0.02 | 0.00 | 90 | 1019.2 |
| 20260905093030 | 39 | 217 | 0.0 | 0.0 | 0.00 | 0.02 | 0.00 | 90 | 1019.1 |
| 20260905091525 | 39 | 217 | 0.0 | 0.0 | 0.00 | 0.02 | 0.00 | 90 | 1019.0 |
| 20260905090023 | 40 | 217 | 0.0 | 0.0 | 0.00 | 0.02 | 0.00 | 90 | 1018.9 |
| 20260905084520 | 40 | 217 | 0.0 | 0.0 | 0.00 | 0.04 | 0.00 | 90 | 1018.9 |
| 20260905083019 | 41 | 218 | 0.0 | 0.0 | 0.00 | 0.04 | 0.00 | 90 | 1018.9 |
| 20260905081516 | 41 | 217 | 0.0 | 0.0 | 0.00 | 0.04 | 0.00 | 90 | 1018.7 |
| 20260905080020 | 41 | 217 | 0.0 | 0.0 | 0.00 | 0.04 | 0.00 | 90 | 1018.7 |
| 20260905074516 | 42 | 217 | 0.0 | 0.0 | 0.00 | 0.04 | 0.00 | 89 | 1018.6 |
| 20260905073009 | 42 | 217 | 0.0 | 0.0 | 0.00 | 0.04 | 0.00 | 89 | 1018.5 |
| 20260905071509 | 42 | 217 | 0.0 | 0.0 | 0.00 | 0.04 | 0.00 | 90 | 1018.2 |
| 20260905070004 | 42 | 218 | 0.0 | 0.0 | 0.00 | 0.04 | 0.00 | 90 | 1018.2 |
| 20260905064503 | 43 | 217 | 0.0 | 0.0 | 0.00 | 0.04 | 0.04 | 90 | 1018.2 |
| 20260905063001 | 43 | 217 | 0.0 | 0.0 | 0.00 | 0.04 | 0.04 | 89 | 1017.9 |
| 20260905061617 | 43 | 218 | 0.0 | 0.0 | 0.00 | 0.04 | 0.04 | 89 | 1017.8 |
| 20260905054602 | 44 | 217 | 0.0 | 0.0 | 0.00 | 0.04 | 0.04 | 88 | 1017.9 |
| 20260905053056 | 45 | 217 | 0.0 | 0.0 | 0.00 | 0.04 | 0.04 | 88 | 1017.7 |
| 20260905051608 | 45 | 217 | 0.0 | 2.0 | 0.00 | 0.04 | 0.04 | 87 | 1017.6 |
| 20260905050103 | 46 | 217 | 0.0 | 0.0 | 0.00 | 0.04 | 0.04 | 87 | 1017.6 |
| 20260905044557 | 46 | 218 | 0.0 | 1.0 | 0.00 | 0.04 | 0.04 | 86 | 1017.6 |
| 20260905043050 | 47 | 218 | 0.0 | 0.0 | 0.00 | 0.04 | 0.04 | 86 | 1017.5 |
| 20260905041550 | 48 | 217 | 0.0 | 1.0 | 0.00 | 0.04 | 0.04 | 86 | 1017.6 |
| 20260905040054 | 49 | 217 | 0.0 | 2.0 | 0.00 | 0.04 | 0.04 | 83 | 1017.4 |
| 20260905034604 | 49 | 217 | 0.0 | 1.0 | 0.00 | 0.04 | 0.04 | 82 | 1017.1 |
| 20260905033101 | 50 | 217 | 0.0 | 2.0 | 0.00 | 0.04 | 0.04 | 81 | 1017.0 |
| 20260905031543 | 51 | 217 | 0.0 | 2.0 | 0.00 | 0.04 | 0.04 | 80 | 1016.9 |
| 20260905030044 | 52 | 218 | 0.0 | 3.0 | 0.00 | 0.04 | 0.04 | 78 | 1016.8 |
| 20260905024540 | 53 | 218 | 0.0 | 1.0 | 0.00 | 0.04 | 0.04 | 76 | 1016.6 |
| 20260905023116 | 55 | 218 | 0.0 | 0.0 | 0.00 | 0.04 | 0.04 | 74 | 1016.5 |
| 20260905021537 | 57 | 218 | 0.0 | 2.0 | 0.00 | 0.04 | 0.04 | 68 | 1016.4 |
| 20260905020038 | 58 | 226 | 2.0 | 5.0 | 0.00 | 0.04 | 0.04 | 60 | 1016.2 |
| 20260905014537 | 59 | 141 | 0.0 | 9.0 | 0.00 | 0.05 | 0.04 | 54 | 1016.2 |
| 20260905013034 | 60 | 155 | 3.0 | 9.0 | 0.00 | 0.05 | 0.04 | 55 | 1016.3 |
| 20260905011533 | 62 | 69 | 1.0 | 10.0 | 0.00 | 0.05 | 0.04 | 53 | 1016.0 |
| 20260905010035 | 61 | 320 | 1.0 | 5.0 | 0.00 | 0.05 | 0.04 | 55 | 1015.9 |
| 20260905004530 | 63 | 216 | 0.0 | 4.0 | 0.00 | 0.22 | 0.04 | 56 | 1015.8 |
| 20260905003029 | 63 | 182 | 2.0 | 8.0 | 0.00 | 0.22 | 0.04 | 52 | 1015.7 |
| 20260905001526 | 63 | 269 | 4.0 | 14.0 | 0.00 | 0.22 | 0.04 | 51 | 1015.6 |
| 20260905000022 | 63 | 220 | 4.0 | 11.0 | 0.00 | 0.22 | 0.04 | 53 | 1015.6 |
| 20260904234526 | 62 | 283 | 5.0 | 11.0 | 0.00 | 0.60 | 0.04 | 56 | 1015.5 |
| 20260904233016 | 63 | 259 | 2.0 | 12.0 | 0.00 | 0.60 | 0.04 | 53 | 1015.5 |
| 20260904231516 | 63 | 237 | 4.0 | 9.0 | 0.00 | 0.60 | 0.04 | 53 | 1015.3 |
| 20260904230014 | 65 | 253 | 3.0 | 14.0 | 0.00 | 0.60 | 0.04 | 49 | 1015.1 |
| 20260904224515 | 67 | 219 | 2.0 | 10.0 | 0.00 | 0.60 | 0.04 | 51 | 1015.0 |
| 20260904223007 | 65 | 235 | 4.0 | 12.0 | 0.00 | 0.60 | 0.04 | 53 | 1015.0 |
| 20260904221505 | 64 | 224 | 6.0 | 10.0 | 0.00 | 0.60 | 0.04 | 54 | 1015.0 |
| 20260904220001 | 62 | 215 | 3.0 | 10.0 | 0.00 | 0.60 | 0.04 | 58 | 1015.2 |
| 20260904214600 | 62 | 255 | 2.0 | 8.0 | 0.00 | 0.60 | 0.04 | 59 | 1015.3 |
| 20260904213059 | 63 | 211 | 1.0 | 7.0 | 0.00 | 0.60 | 0.04 | 58 | 1015.2 |
| 20260904211600 | 64 | 228 | 1.0 | 8.0 | 0.00 | 0.60 | 0.04 | 57 | 1015.2 |
| 20260904210107 | 65 | 224 | 4.0 | 9.0 | 0.00 | 0.60 | 0.04 | 55 | 1015.0 |
| 20260904204552 | 62 | 227 | 3.0 | 8.0 | 0.00 | 0.60 | 0.04 | 68 | 1014.8 |
| 20260904203050 | 61 | 204 | 0.0 | 3.0 | 0.00 | 0.60 | 0.04 | 77 | 1014.9 |
| 20260904201551 | 61 | 195 | 0.0 | 3.0 | 0.00 | 0.60 | 0.04 | 74 | 1014.8 |
| 20260904200049 | 62 | 215 | 0.0 | 0.0 | 0.00 | 0.60 | 0.04 | 75 | 1014.5 |
| 20260904194555 | 62 | 253 | 0.0 | 4.0 | 0.00 | 0.60 | 0.04 | 74 | 1014.5 |
| 20260904193047 | 62 | 150 | 0.0 | 3.0 | 0.00 | 0.60 | 0.04 | 74 | 1014.4 |
| 20260904191548 | 62 | 208 | 1.0 | 4.0 | 0.01 | 0.60 | 0.04 | 68 | 1014.4 |
| 20260904190044 | 61 | 206 | 1.0 | 4.0 | 0.01 | 0.60 | 0.04 | 73 | 1014.2 |
| 20260904184546 | 60 | 231 | 1.0 | 5.0 | 0.01 | 0.60 | 0.04 | 68 | 1014.2 |
| 20260904183039 | 59 | 140 | 0.0 | 3.0 | 0.01 | 0.60 | 0.04 | 75 | 1014.2 |
| 20260904181533 | 58 | 125 | 0.0 | 3.0 | 0.00 | 0.59 | 0.03 | 87 | 1014.3 |
| 20260904181503 | 58 | 125 | 1.0 | 3.0 | 0.00 | 0.59 | 0.03 | 88 | 1014.3 |
| 20260904180024 | 56 | 114 | 0.0 | 2.0 | 0.00 | 0.59 | 0.03 | 89 | 1014.3 |